This is the latest recevied weather packets stored in our database for station/object K0APR. If no packets are shown the sender has not sent any weather packets the latest 10 day(s).
| Time | Temp. | Humidity | Pressure | Rain* | Wind** | Luminosity | Snow |
|---|---|---|---|---|---|---|---|
| 1788620384 | 20.56° C | 97% | 1015.8 hPa | 0 mm | - | 141 W/m² | - |
| 1788620079 | 20° C | 96% | 1016.1 hPa | 0 mm | - | 130 W/m² | - |
| 1788619778 | 20° C | 96% | 1016.1 hPa | 0 mm | - | 123 W/m² | - |
| 1788619474 | 20° C | 97% | 1015.8 hPa | 0 mm | - | 117 W/m² | - |
| 1788619173 | 20° C | 97% | 1016.1 hPa | 0 mm | - | 115 W/m² | - |
| 1788618873 | 20° C | 97% | 1016.1 hPa | 0 mm | - | 107 W/m² | - |
| 1788618573 | 20° C | 97% | 1016.1 hPa | 0 mm | - | 99 W/m² | - |
| 1788618272 | 20° C | 97% | 1016.1 hPa | 0 mm | - | 92 W/m² | - |
| 1788617968 | 20° C | 97% | 1016.1 hPa | 0 mm | - | 85 W/m² | - |
| 1788617662 | 20° C | 97% | 1016.1 hPa | 0 mm | - | 78 W/m² | - |
| 1788617359 | 20° C | 96% | 1015.8 hPa | 0 mm | - | 72 W/m² | - |
| 1788617054 | 20° C | 96% | 1015.8 hPa | 0 mm | - | 69 W/m² | - |
| 1788616752 | 20° C | 96% | 1016.1 hPa | 0 mm | - | 64 W/m² | - |
| 1788616448 | 20° C | 95% | 1016.1 hPa | 0 mm | - | 59 W/m² | - |
| 1788616143 | 20° C | 95% | 1016.5 hPa | 0 mm | - | 52 W/m² | - |
| 1788615842 | 20° C | 95% | 1016.1 hPa | 0 mm | - | 42 W/m² | - |
| 1788615536 | 20° C | 94% | 1016.1 hPa | 0 mm | - | 34 W/m² | - |
| 1788615232 | 20.56° C | 92% | 1015.8 hPa | 0 mm | - | 29 W/m² | - |
| 1788614931 | 20.56° C | 93% | 1015.5 hPa | 0 mm | - | 27 W/m² | - |
| 1788614627 | 20.56° C | 94% | 1015.5 hPa | 0 mm | - | 19 W/m² | - |
| 1788614326 | 20.56° C | 94% | 1015.8 hPa | 0 mm | - | 14 W/m² | - |
| 1788614022 | 20.56° C | 93% | 1015.8 hPa | 0 mm | - | 11 W/m² | - |
| 1788613717 | 21.67° C | 89% | 1015.5 hPa | 1.27 mm | - | 9 W/m² | - |
| 1788613416 | 21.11° C | 93% | 1015.1 hPa | 1.27 mm | - | 7 W/m² | - |
| 1788613111 | 21.11° C | 97% | 1015.1 hPa | 0 mm | - | 5 W/m² | - |
* Rain latest hour (hover to see other rain measurements)
** Current wind speed in m/s (hover to see current wind gust speed)